カタログに戻る

SL-12 R/B

AUX MOTOR

運用中HEO
NORAD 16446·ROCKET BODY·🇷🇺 Russia

打ち上げ Dec 24, 1985 から Baikonur Cosmodrome

Loading…

次のパス (今後24時間)

TLE

最新Source: Space-Track

元期: Sep 13, 2026, 13:22 UTC

1 16446U 85118L   26256.55726855  .00001215  00000-0  60724-3 0  9999
2 16446  64.7879 287.9674 5706324   6.1162 358.7023  4.42076272641788

AllMySatでSL-12 R/Bをリアルタイム追跡

Download on the App Store